| time (UTC) | temp F | wind direction | speed knots | gust knots | rain 1hr in | rain 24hr in | rain mn in | humidity % | barometer mb |
| 20260905143031 | 47 | 152 | 5.2 | 8.7 | 0.00 | 0.03 | 0.00 | 94 | 1019.1 |
| 20260905141532 | 46 | 146 | 5.2 | 9.6 | 0.00 | 0.03 | 0.00 | 94 | 1019.1 |
| 20260905140105 | 45 | 168 | 3.5 | 7.8 | 0.00 | 0.03 | 0.00 | 94 | 1018.9 |
| 20260905134531 | 45 | 152 | 3.5 | 6.1 | 0.00 | 0.03 | 0.00 | 94 | 1018.8 |
| 20260905133033 | 45 | 153 | 3.5 | 6.1 | 0.00 | 0.03 | 0.00 | 94 | 1018.7 |
| 20260905131530 | 45 | 152 | 3.5 | 6.1 | 0.00 | 0.03 | 0.00 | 94 | 1018.7 |
| 20260905130036 | 45 | 146 | 3.5 | 5.2 | 0.00 | 0.03 | 0.00 | 94 | 1018.6 |
| 20260905123033 | 46 | 155 | 1.7 | 3.5 | 0.00 | 0.03 | 0.00 | 94 | 1018.7 |
| 20260905121608 | 46 | 144 | 2.6 | 5.2 | 0.00 | 0.03 | 0.00 | 94 | 1018.7 |
| 20260905114536 | 46 | 162 | 2.6 | 5.2 | 0.00 | 0.04 | 0.00 | 93 | 1018.5 |
| 20260905113034 | 47 | 168 | 2.6 | 4.3 | 0.00 | 0.04 | 0.00 | 93 | 1018.4 |
| 20260905111533 | 47 | 135 | 2.6 | 4.3 | 0.00 | 0.04 | 0.00 | 93 | 1018.4 |
| 20260905110036 | 47 | 158 | 0.0 | 3.5 | 0.00 | 0.04 | 0.00 | 93 | 1018.5 |
| 20260905104530 | 48 | 172 | 0.9 | 2.6 | 0.00 | 0.04 | 0.00 | 93 | 1018.5 |
| 20260905103032 | 48 | 144 | 0.9 | 2.6 | 0.00 | 0.04 | 0.00 | 93 | 1018.4 |
| 20260905101608 | 48 | 172 | 2.6 | 4.3 | 0.00 | 0.04 | 0.00 | 93 | 1018.4 |
| 20260905100036 | 48 | 167 | 2.6 | 5.2 | 0.00 | 0.04 | 0.00 | 93 | 1018.5 |
| 20260905094543 | 48 | 154 | 3.5 | 6.1 | 0.00 | 0.04 | 0.00 | 93 | 1018.4 |
| 20260905091536 | 48 | 176 | 3.5 | 6.1 | 0.00 | 0.04 | 0.00 | 93 | 1018.4 |
| 20260905090032 | 48 | 164 | 3.5 | 7.0 | 0.00 | 0.04 | 0.00 | 93 | 1018.4 |
| 20260905081531 | 48 | 141 | 3.5 | 7.8 | 0.00 | 0.04 | 0.00 | 93 | 1018.3 |
| 20260905080035 | 48 | 142 | 2.6 | 3.5 | 0.00 | 0.04 | 0.00 | 93 | 1018.3 |
| 20260905074531 | 48 | 142 | 3.5 | 5.2 | 0.00 | 0.04 | 0.00 | 93 | 1018.1 |
| 20260905071536 | 48 | 156 | 2.6 | 5.2 | 0.00 | 0.04 | 0.00 | 92 | 1017.9 |
| 20260905070030 | 48 | 160 | 2.6 | 6.1 | 0.01 | 0.04 | 0.00 | 92 | 1017.8 |
| 20260905064535 | 49 | 160 | 1.7 | 4.3 | 0.02 | 0.04 | 0.04 | 92 | 1017.7 |
| 20260905063035 | 50 | 161 | 2.6 | 4.3 | 0.02 | 0.04 | 0.04 | 92 | 1017.6 |
| 20260905061536 | 50 | 161 | 2.6 | 5.2 | 0.02 | 0.04 | 0.03 | 92 | 1017.7 |
| 20260905060032 | 50 | 157 | 0.9 | 3.5 | 0.01 | 0.03 | 0.02 | 92 | 1017.8 |
| 20260905054535 | 50 | 171 | 1.7 | 3.5 | 0.00 | 0.02 | 0.02 | 91 | 1017.9 |
| 20260905053030 | 50 | 171 | 2.6 | 5.2 | 0.00 | 0.02 | 0.02 | 91 | 1017.9 |
| 20260905051532 | 50 | 164 | 1.7 | 4.3 | 0.00 | 0.02 | 0.02 | 91 | 1017.8 |
| 20260905044531 | 50 | 173 | 2.6 | 3.5 | 0.00 | 0.02 | 0.02 | 90 | 1017.7 |
| 20260905043036 | 50 | 136 | 2.6 | 3.5 | 0.00 | 0.02 | 0.02 | 90 | 1017.5 |
| 20260905041535 | 50 | 175 | 1.7 | 3.5 | 0.00 | 0.02 | 0.02 | 89 | 1017.5 |
| 20260905040031 | 51 | 177 | 1.7 | 3.5 | 0.00 | 0.02 | 0.02 | 89 | 1017.3 |
| 20260905034537 | 50 | 162 | 1.7 | 2.6 | 0.00 | 0.02 | 0.02 | 88 | 1017.2 |
| 20260905031533 | 51 | 180 | 2.6 | 3.5 | 0.00 | 0.02 | 0.02 | 86 | 1017.0 |
| 20260905030032 | 52 | 208 | 1.7 | 3.5 | 0.00 | 0.02 | 0.02 | 85 | 1017.0 |
| 20260905024536 | 53 | 312 | 0.0 | 0.9 | 0.00 | 0.02 | 0.02 | 83 | 1017.0 |
| 20260905023032 | 53 | 336 | 0.9 | 2.6 | 0.00 | 0.02 | 0.02 | 82 | 1017.1 |
| 20260905021537 | 55 | 337 | 0.0 | 0.9 | 0.00 | 0.02 | 0.02 | 79 | 1016.9 |
| 20260905020036 | 56 | 337 | 0.9 | 1.7 | 0.00 | 0.02 | 0.02 | 78 | 1016.7 |
| 20260905013029 | 57 | 337 | 0.9 | 3.5 | 0.00 | 0.02 | 0.02 | 78 | 1016.4 |
| 20260905011534 | 57 | 337 | 1.7 | 2.6 | 0.00 | 0.02 | 0.02 | 78 | 1016.5 |
| 20260905010142 | 57 | 322 | 0.0 | 2.6 | 0.00 | 0.02 | 0.02 | 77 | 1016.3 |
| 20260905003107 | 57 | 292 | 0.0 | 2.6 | 0.00 | 0.02 | 0.02 | 79 | 1016.2 |
| 20260905001532 | 57 | 286 | 0.9 | 3.5 | 0.00 | 0.02 | 0.02 | 81 | 1016.1 |
| 20260905000106 | 57 | 254 | 0.9 | 3.5 | 0.00 | 0.02 | 0.02 | 80 | 1016.1 |
| 20260904233030 | 57 | 171 | 1.7 | 4.3 | 0.00 | 0.02 | 0.02 | 79 | 1016.0 |
| 20260904231643 | 58 | 148 | 1.7 | 4.3 | 0.00 | 0.02 | 0.02 | 78 | 1015.9 |
| 20260904224532 | 57 | 112 | 1.7 | 6.1 | 0.00 | 0.02 | 0.02 | 78 | 1015.8 |
| 20260904223031 | 56 | 73 | 2.6 | 5.2 | 0.00 | 0.02 | 0.02 | 80 | 1015.8 |
| 20260904221608 | 56 | 112 | 1.7 | 7.0 | 0.00 | 0.02 | 0.02 | 82 | 1015.8 |
| 20260904220035 | 56 | 138 | 1.7 | 5.2 | 0.00 | 0.02 | 0.02 | 84 | 1015.8 |
| 20260904214535 | 56 | 160 | 0.9 | 3.5 | 0.00 | 0.02 | 0.02 | 84 | 1015.8 |
| 20260904213035 | 56 | 76 | 0.9 | 3.5 | 0.00 | 0.02 | 0.02 | 84 | 1015.8 |
| 20260904211641 | 57 | 348 | 1.7 | 4.3 | 0.00 | 0.02 | 0.02 | 84 | 1015.6 |
| 20260904210034 | 57 | 270 | 0.0 | 3.5 | 0.00 | 0.02 | 0.02 | 85 | 1015.5 |
| 20260904204536 | 56 | 282 | 0.9 | 4.3 | 0.00 | 0.02 | 0.02 | 85 | 1015.4 |
| 20260904203034 | 55 | 332 | 0.9 | 3.5 | 0.00 | 0.02 | 0.02 | 86 | 1015.4 |
| 20260904201529 | 55 | 360 | 0.0 | 1.7 | 0.00 | 0.02 | 0.02 | 86 | 1015.6 |
| 20260904200036 | 55 | 314 | 1.7 | 4.3 | 0.00 | 0.02 | 0.02 | 85 | 1015.6 |
| 20260904194536 | 56 | 325 | 2.6 | 5.2 | 0.00 | 0.02 | 0.02 | 85 | 1015.6 |
| 20260904193034 | 56 | 309 | 1.7 | 5.2 | 0.00 | 0.02 | 0.02 | 86 | 1015.7 |
| 20260904191531 | 55 | 309 | 1.7 | 6.1 | 0.00 | 0.02 | 0.02 | 87 | 1015.7 |
| 20260904190030 | 55 | 309 | 1.7 | 5.2 | 0.00 | 0.02 | 0.02 | 86 | 1015.7 |
| 20260904184606 | 55 | 301 | 0.9 | 2.6 | 0.00 | 0.02 | 0.02 | 87 | 1015.7 |
| 20260904181532 | 55 | 284 | 0.9 | 3.5 | 0.00 | 0.02 | 0.02 | 88 | 1015.6 |
| 20260904180051 | 56 | 267 | 2.6 | 6.1 | 0.00 | 0.02 | 0.02 | 92 | 1015.5 |
| 20260904173036 | 50 | 337 | 0.0 | 0.9 | 0.00 | 0.02 | 0.02 | 95 | 1015.3 |
| 20260904171535 | 49 | 337 | 0.0 | 0.9 | 0.00 | 0.02 | 0.02 | 95 | 1015.5 |
| 20260904170035 | 50 | 337 | 0.9 | 2.6 | 0.01 | 0.02 | 0.02 | 95 | 1015.3 |
| 20260904164534 | 51 | 323 | 1.7 | 3.5 | 0.01 | 0.02 | 0.02 | 95 | 1015.2 |
| 20260904161531 | 51 | 322 | 0.9 | 4.3 | 0.01 | 0.02 | 0.01 | 96 | 1015.1 |
| 20260904160105 | 49 | 330 | 1.7 | 3.5 | 0.00 | 0.01 | 0.01 | 96 | 1015.0 |
| 20260904154608 | 49 | 337 | 1.7 | 2.6 | 0.00 | 0.01 | 0.01 | 96 | 1014.9 |
| 20260904153034 | 49 | 227 | 0.0 | 2.6 | 0.00 | 0.01 | 0.01 | 96 | 1014.7 |
| 20260904151539 | 48 | 195 | 0.9 | 2.6 | 0.00 | 0.01 | 0.01 | 96 | 1014.6 |
| 20260904150106 | 47 | 153 | 1.7 | 4.3 | 0.00 | 0.01 | 0.01 | 96 | 1014.4 |
| 20260904144539 | 46 | 135 | 1.7 | 3.5 | 0.00 | 0.01 | 0.01 | 96 | 1014.4 |